GFSFLT1_prec_pwat_000.txt.gz
Precipitable_Water
0.42 0.45 0.46 0.46 0.48 0.48 0.48 0.49 0.49 0.52 0.54 0.53 0.55 0.56 0.57 0.59 0.61 0.64 0.65 0.62 0.58 0.57 0.59 0.59 0.59 0.56 0.56 0.57 0.55 0.54 0.53 0.51
0.39 0.46 0.48 0.48 0.48 0.48 0.48 0.48 0.50 0.50 0.51 0.51 0.51 0.51 0.55 0.59 0.61 0.62 0.64 0.64 0.61 0.60 0.59 0.58 0.59 0.58 0.58 0.57 0.56 0.55 0.53 0.54
0.41 0.45 0.47 0.48 0.48 0.49 0.50 0.51 0.53 0.54 0.54 0.54 0.53 0.55 0.56 0.59 0.61 0.63 0.64 0.63 0.60 0.62 0.62 0.60 0.61 0.60 0.59 0.59 0.61 0.56 0.55 0.54
0.40 0.44 0.47 0.51 0.52 0.55 0.56 0.56 0.55 0.55 0.56 0.57 0.55 0.56 0.57 0.57 0.58 0.60 0.62 0.62 0.67 0.67 0.67 0.67 0.64 0.63 0.61 0.60 0.57 0.55 0.53 0.57
0.45 0.47 0.49 0.53 0.56 0.61 0.63 0.62 0.61 0.60 0.61 0.58 0.58 0.54 0.53 0.56 0.56 0.57 0.59 0.66 0.69 0.68 0.68 0.67 0.66 0.63 0.61 0.61 0.61 0.60 0.57 0.51
0.49 0.51 0.53 0.56 0.59 0.63 0.65 0.66 0.67 0.66 0.65 0.63 0.59 0.58 0.58 0.60 0.61 0.59 0.59 0.61 0.62 0.63 0.65 0.67 0.65 0.64 0.61 0.59 0.53 0.50 0.52 0.52
0.54 0.57 0.59 0.60 0.63 0.63 0.66 0.68 0.68 0.69 0.67 0.66 0.62 0.58 0.59 0.60 0.59 0.58 0.58 0.59 0.59 0.61 0.61 0.61 0.58 0.56 0.54 0.49 0.47 0.47 0.47 0.47
0.57 0.59 0.60 0.62 0.63 0.65 0.68 0.68 0.67 0.70 0.70 0.70 0.66 0.63 0.61 0.59 0.59 0.58 0.56 0.56 0.55 0.54 0.53 0.55 0.53 0.51 0.45 0.43 0.42 0.41 0.41 0.40
0.58 0.62 0.66 0.67 0.68 0.70 0.71 0.70 0.68 0.69 0.71 0.70 0.69 0.65 0.62 0.61 0.61 0.60 0.57 0.54 0.52 0.54 0.54 0.51 0.47 0.46 0.47 0.43 0.41 0.39 0.38 0.36
0.63 0.66 0.69 0.69 0.70 0.72 0.74 0.72 0.71 0.70 0.70 0.71 0.68 0.66 0.63 0.60 0.61 0.60 0.57 0.53 0.51 0.51 0.52 0.48 0.49 0.46 0.43 0.41 0.38 0.36 0.36 0.34
0.66 0.67 0.69 0.71 0.74 0.74 0.71 0.71 0.68 0.66 0.66 0.65 0.63 0.63 0.63 0.61 0.59 0.57 0.52 0.53 0.54 0.52 0.50 0.49 0.43 0.41 0.39 0.37 0.35 0.34 0.32 0.32
0.66 0.68 0.71 0.72 0.72 0.70 0.67 0.65 0.62 0.60 0.59 0.59 0.58 0.58 0.58 0.56 0.54 0.50 0.54 0.53 0.53 0.51 0.48 0.41 0.39 0.38 0.35 0.33 0.31 0.30 0.28 0.26
0.65 0.65 0.67 0.69 0.69 0.69 0.67 0.63 0.58 0.56 0.56 0.54 0.53 0.53 0.51 0.48 0.45 0.49 0.52 0.50 0.51 0.45 0.41 0.40 0.38 0.35 0.32 0.29 0.26 0.25 0.24 0.24
0.64 0.65 0.66 0.68 0.69 0.67 0.66 0.59 0.54 0.54 0.52 0.50 0.48 0.48 0.45 0.44 0.48 0.49 0.52 0.48 0.44 0.42 0.41 0.38 0.34 0.30 0.26 0.24 0.23 0.23 0.23 0.23
0.64 0.64 0.65 0.67 0.67 0.67 0.64 0.55 0.53 0.51 0.49 0.47 0.45 0.44 0.45 0.49 0.49 0.49 0.47 0.43 0.42 0.41 0.39 0.33 0.28 0.23 0.21 0.22 0.22 0.23 0.23 0.24
0.65 0.64 0.64 0.64 0.66 0.63 0.60 0.55 0.51 0.50 0.47 0.44 0.46 0.50 0.51 0.52 0.48 0.45 0.43 0.41 0.41 0.37 0.29 0.23 0.21 0.21 0.21 0.22 0.23 0.23 0.23 0.23
0.64 0.65 0.64 0.64 0.62 0.64 0.56 0.52 0.49 0.47 0.46 0.50 0.55 0.55 0.50 0.47 0.45 0.41 0.40 0.38 0.32 0.24 0.20 0.19 0.20 0.21 0.22 0.23 0.24 0.24 0.25 0.24
0.65 0.63 0.62 0.62 0.61 0.59 0.58 0.54 0.56 0.55 0.56 0.56 0.55 0.53 0.46 0.43 0.40 0.39 0.37 0.29 0.22 0.19 0.18 0.19 0.20 0.22 0.23 0.25 0.26 0.27 0.27 0.28
0.62 0.61 0.62 0.61 0.60 0.58 0.59 0.62 0.61 0.57 0.56 0.54 0.52 0.45 0.41 0.40 0.37 0.36 0.27 0.21 0.19 0.18 0.19 0.21 0.21 0.23 0.24 0.26 0.27 0.28 0.30 0.31

GFSFLT1_prec_pwat_003.txt.gz
Precipitable_Water
0.41 0.44 0.48 0.50 0.51 0.51 0.51 0.51 0.51 0.52 0.56 0.58 0.59 0.59 0.59 0.60 0.68 0.71 0.67 0.66 0.62 0.59 0.63 0.62 0.61 0.60 0.61 0.60 0.57 0.59 0.57 0.55
0.41 0.45 0.48 0.51 0.53 0.52 0.52 0.51 0.54 0.55 0.56 0.56 0.55 0.54 0.56 0.57 0.61 0.65 0.70 0.69 0.65 0.62 0.59 0.63 0.62 0.59 0.60 0.61 0.59 0.57 0.56 0.57
0.42 0.48 0.51 0.52 0.53 0.54 0.54 0.56 0.57 0.59 0.60 0.60 0.60 0.60 0.59 0.60 0.63 0.65 0.69 0.67 0.66 0.63 0.61 0.60 0.60 0.60 0.59 0.59 0.61 0.59 0.58 0.58
0.44 0.48 0.52 0.55 0.56 0.58 0.60 0.62 0.61 0.62 0.62 0.62 0.62 0.62 0.61 0.60 0.61 0.64 0.66 0.66 0.65 0.63 0.64 0.65 0.64 0.63 0.60 0.61 0.60 0.56 0.54 0.57
0.49 0.52 0.54 0.56 0.59 0.63 0.63 0.65 0.66 0.67 0.67 0.63 0.60 0.58 0.56 0.58 0.58 0.60 0.62 0.64 0.63 0.65 0.66 0.68 0.66 0.64 0.61 0.62 0.62 0.59 0.57 0.49
0.52 0.55 0.57 0.59 0.62 0.64 0.66 0.67 0.68 0.69 0.69 0.69 0.64 0.61 0.61 0.62 0.60 0.59 0.60 0.62 0.65 0.69 0.70 0.68 0.66 0.65 0.63 0.62 0.58 0.54 0.53 0.45
0.56 0.59 0.60 0.62 0.66 0.68 0.69 0.70 0.70 0.71 0.70 0.70 0.67 0.64 0.64 0.63 0.61 0.59 0.59 0.60 0.61 0.62 0.62 0.61 0.61 0.59 0.58 0.58 0.56 0.52 0.43 0.42
0.56 0.57 0.62 0.67 0.70 0.71 0.73 0.75 0.73 0.73 0.69 0.72 0.71 0.70 0.69 0.65 0.62 0.60 0.58 0.56 0.56 0.56 0.57 0.57 0.58 0.57 0.56 0.56 0.54 0.50 0.45 0.41
0.61 0.66 0.70 0.72 0.73 0.73 0.75 0.74 0.71 0.69 0.65 0.65 0.69 0.70 0.69 0.67 0.66 0.62 0.58 0.56 0.55 0.56 0.56 0.57 0.55 0.54 0.55 0.56 0.55 0.44 0.41 0.40
0.67 0.70 0.72 0.73 0.73 0.75 0.75 0.73 0.69 0.64 0.61 0.61 0.61 0.61 0.60 0.62 0.60 0.58 0.56 0.55 0.54 0.55 0.55 0.54 0.53 0.55 0.58 0.48 0.43 0.39 0.38 0.36
0.65 0.68 0.69 0.71 0.73 0.75 0.74 0.71 0.66 0.61 0.58 0.56 0.55 0.54 0.54 0.56 0.57 0.55 0.54 0.56 0.56 0.58 0.59 0.59 0.59 0.51 0.46 0.41 0.39 0.37 0.35 0.34
0.64 0.67 0.72 0.74 0.74 0.74 0.72 0.68 0.63 0.56 0.54 0.53 0.51 0.50 0.51 0.51 0.51 0.52 0.55 0.58 0.55 0.53 0.53 0.50 0.47 0.42 0.41 0.38 0.35 0.33 0.31 0.29
0.65 0.68 0.70 0.70 0.69 0.70 0.67 0.65 0.60 0.53 0.52 0.49 0.48 0.47 0.46 0.45 0.47 0.49 0.49 0.48 0.47 0.48 0.46 0.43 0.41 0.40 0.39 0.35 0.31 0.28 0.25 0.24
0.69 0.70 0.69 0.65 0.65 0.66 0.66 0.64 0.56 0.56 0.51 0.47 0.44 0.42 0.43 0.44 0.44 0.44 0.44 0.45 0.45 0.42 0.40 0.39 0.37 0.33 0.29 0.25 0.22 0.22 0.21 0.21
0.63 0.65 0.66 0.63 0.63 0.62 0.62 0.56 0.57 0.55 0.49 0.44 0.42 0.43 0.44 0.44 0.44 0.44 0.45 0.43 0.40 0.38 0.37 0.33 0.28 0.25 0.22 0.22 0.22 0.22 0.22 0.23
0.62 0.61 0.61 0.60 0.60 0.61 0.58 0.57 0.54 0.52 0.46 0.45 0.45 0.47 0.47 0.47 0.46 0.45 0.45 0.41 0.39 0.38 0.33 0.27 0.23 0.21 0.21 0.22 0.24 0.24 0.24 0.23
0.62 0.61 0.60 0.58 0.57 0.55 0.55 0.55 0.54 0.55 0.52 0.51 0.53 0.53 0.53 0.51 0.50 0.46 0.42 0.39 0.38 0.31 0.25 0.20 0.19 0.20 0.23 0.25 0.25 0.24 0.24 0.24
0.60 0.60 0.57 0.54 0.55 0.56 0.53 0.52 0.54 0.56 0.57 0.58 0.57 0.56 0.54 0.49 0.46 0.40 0.37 0.35 0.29 0.21 0.18 0.18 0.19 0.22 0.24 0.24 0.24 0.24 0.24 0.26
0.60 0.57 0.52 0.54 0.56 0.53 0.52 0.52 0.54 0.54 0.54 0.52 0.50 0.49 0.47 0.40 0.38 0.36 0.34 0.25 0.19 0.17 0.17 0.19 0.21 0.22 0.23 0.23 0.25 0.27 0.28 0.29

GFSFLT1_prec_pwat_006.txt.gz
Precipitable_Water
0.41 0.44 0.49 0.53 0.56 0.57 0.57 0.56 0.53 0.57 0.60 0.62 0.63 0.64 0.65 0.67 0.69 0.73 0.73 0.75 0.73 0.68 0.68 0.67 0.64 0.62 0.60 0.60 0.57 0.58 0.57 0.56
0.44 0.47 0.51 0.54 0.56 0.57 0.57 0.56 0.57 0.60 0.60 0.59 0.59 0.58 0.60 0.62 0.64 0.69 0.75 0.73 0.70 0.66 0.64 0.64 0.66 0.61 0.60 0.60 0.59 0.56 0.56 0.59
0.44 0.49 0.54 0.56 0.57 0.57 0.60 0.61 0.62 0.63 0.63 0.62 0.61 0.61 0.61 0.61 0.62 0.64 0.68 0.71 0.69 0.67 0.65 0.63 0.64 0.62 0.61 0.60 0.59 0.57 0.57 0.58
0.46 0.49 0.53 0.57 0.57 0.59 0.61 0.63 0.65 0.66 0.66 0.64 0.62 0.61 0.61 0.59 0.60 0.61 0.63 0.66 0.68 0.67 0.65 0.64 0.63 0.61 0.59 0.60 0.60 0.57 0.53 0.56
0.49 0.52 0.54 0.57 0.59 0.62 0.63 0.66 0.67 0.68 0.69 0.67 0.63 0.59 0.57 0.60 0.61 0.62 0.62 0.65 0.66 0.66 0.65 0.63 0.63 0.64 0.63 0.64 0.63 0.59 0.55 0.50
0.51 0.54 0.58 0.60 0.63 0.65 0.69 0.70 0.71 0.73 0.75 0.73 0.67 0.62 0.61 0.63 0.64 0.63 0.62 0.63 0.64 0.64 0.64 0.64 0.64 0.64 0.61 0.59 0.57 0.55 0.53 0.49
0.59 0.64 0.65 0.66 0.71 0.72 0.74 0.75 0.76 0.78 0.78 0.76 0.69 0.61 0.58 0.61 0.63 0.63 0.63 0.64 0.65 0.67 0.66 0.65 0.64 0.61 0.61 0.61 0.62 0.58 0.56 0.54
0.63 0.64 0.66 0.70 0.73 0.74 0.76 0.77 0.77 0.78 0.78 0.70 0.65 0.60 0.59 0.59 0.60 0.60 0.61 0.62 0.63 0.68 0.63 0.61 0.60 0.60 0.62 0.62 0.61 0.60 0.60 0.56
0.64 0.67 0.71 0.73 0.74 0.75 0.76 0.76 0.72 0.71 0.69 0.66 0.63 0.59 0.58 0.57 0.58 0.57 0.56 0.59 0.59 0.60 0.59 0.59 0.62 0.65 0.64 0.66 0.64 0.65 0.61 0.48
0.65 0.70 0.71 0.72 0.72 0.75 0.76 0.73 0.70 0.67 0.62 0.59 0.57 0.55 0.53 0.52 0.52 0.52 0.51 0.52 0.54 0.56 0.61 0.69 0.69 0.70 0.67 0.61 0.52 0.48 0.46 0.42
0.65 0.67 0.70 0.72 0.73 0.74 0.73 0.72 0.67 0.64 0.58 0.56 0.53 0.52 0.50 0.49 0.46 0.46 0.47 0.50 0.55 0.62 0.67 0.68 0.64 0.56 0.51 0.48 0.45 0.43 0.39 0.38
0.64 0.67 0.70 0.72 0.72 0.70 0.68 0.66 0.64 0.56 0.54 0.53 0.51 0.48 0.46 0.45 0.44 0.46 0.48 0.51 0.56 0.59 0.53 0.49 0.48 0.45 0.43 0.41 0.40 0.38 0.35 0.34
0.67 0.68 0.67 0.66 0.64 0.63 0.62 0.61 0.57 0.54 0.53 0.49 0.47 0.45 0.44 0.43 0.45 0.47 0.48 0.47 0.47 0.45 0.44 0.42 0.38 0.37 0.36 0.34 0.32 0.29 0.25 0.22
0.65 0.64 0.61 0.61 0.59 0.58 0.57 0.57 0.52 0.53 0.52 0.47 0.43 0.42 0.41 0.41 0.43 0.45 0.45 0.42 0.41 0.41 0.39 0.36 0.35 0.34 0.30 0.27 0.24 0.22 0.22 0.21
0.62 0.60 0.59 0.60 0.59 0.56 0.54 0.51 0.54 0.53 0.48 0.43 0.39 0.38 0.39 0.41 0.43 0.43 0.44 0.43 0.43 0.40 0.37 0.36 0.33 0.29 0.25 0.23 0.21 0.21 0.21 0.22
0.61 0.58 0.58 0.60 0.54 0.52 0.51 0.51 0.50 0.47 0.44 0.41 0.39 0.41 0.44 0.45 0.45 0.45 0.50 0.46 0.40 0.39 0.37 0.32 0.28 0.25 0.21 0.21 0.22 0.22 0.22 0.22
0.58 0.58 0.56 0.53 0.49 0.48 0.48 0.48 0.46 0.47 0.47 0.49 0.49 0.49 0.51 0.51 0.53 0.49 0.46 0.43 0.40 0.37 0.31 0.25 0.20 0.19 0.20 0.23 0.24 0.22 0.22 0.21
0.55 0.55 0.55 0.50 0.47 0.48 0.46 0.45 0.46 0.45 0.48 0.51 0.54 0.54 0.52 0.46 0.45 0.44 0.41 0.37 0.34 0.29 0.22 0.19 0.18 0.20 0.21 0.22 0.23 0.21 0.20 0.21
0.53 0.58 0.53 0.51 0.52 0.47 0.45 0.44 0.42 0.44 0.44 0.46 0.49 0.49 0.46 0.41 0.36 0.34 0.34 0.32 0.25 0.19 0.18 0.18 0.19 0.20 0.22 0.22 0.21 0.21 0.23 0.26

GFSFLT1_prec_pwat_009.txt.gz
Precipitable_Water
0.44 0.48 0.52 0.58 0.63 0.65 0.63 0.65 0.64 0.64 0.64 0.65 0.65 0.63 0.64 0.64 0.64 0.66 0.69 0.72 0.74 0.72 0.70 0.69 0.69 0.64 0.60 0.60 0.58 0.59 0.56 0.55
0.46 0.48 0.53 0.58 0.62 0.62 0.60 0.59 0.62 0.63 0.63 0.61 0.60 0.60 0.61 0.60 0.62 0.63 0.66 0.68 0.70 0.69 0.66 0.65 0.65 0.61 0.59 0.59 0.58 0.56 0.55 0.57
0.46 0.50 0.54 0.58 0.59 0.60 0.59 0.62 0.65 0.67 0.67 0.67 0.66 0.65 0.64 0.63 0.63 0.62 0.65 0.66 0.67 0.69 0.66 0.63 0.63 0.61 0.59 0.58 0.57 0.55 0.55 0.58
0.49 0.51 0.54 0.58 0.60 0.61 0.64 0.65 0.66 0.68 0.70 0.71 0.71 0.70 0.68 0.64 0.62 0.60 0.63 0.66 0.67 0.68 0.66 0.64 0.64 0.64 0.61 0.60 0.58 0.55 0.51 0.55
0.49 0.52 0.56 0.60 0.64 0.67 0.66 0.68 0.70 0.71 0.72 0.70 0.68 0.66 0.63 0.65 0.63 0.60 0.60 0.66 0.66 0.66 0.65 0.65 0.64 0.64 0.65 0.63 0.63 0.60 0.58 0.53
0.52 0.56 0.60 0.65 0.66 0.67 0.71 0.73 0.74 0.76 0.77 0.75 0.72 0.69 0.65 0.62 0.59 0.57 0.58 0.62 0.65 0.65 0.66 0.66 0.68 0.67 0.66 0.67 0.64 0.58 0.56 0.53
0.59 0.63 0.68 0.69 0.72 0.74 0.75 0.75 0.74 0.75 0.76 0.75 0.71 0.67 0.63 0.58 0.56 0.54 0.54 0.56 0.58 0.61 0.64 0.66 0.66 0.65 0.64 0.65 0.63 0.60 0.60 0.60
0.61 0.63 0.68 0.71 0.72 0.73 0.73 0.73 0.70 0.72 0.70 0.68 0.67 0.63 0.60 0.56 0.53 0.52 0.51 0.51 0.51 0.52 0.56 0.57 0.62 0.64 0.67 0.68 0.66 0.67 0.68 0.67
0.65 0.69 0.69 0.71 0.71 0.71 0.70 0.70 0.68 0.69 0.67 0.60 0.59 0.57 0.54 0.52 0.51 0.49 0.47 0.46 0.46 0.50 0.53 0.59 0.63 0.66 0.70 0.66 0.66 0.67 0.66 0.62
0.68 0.69 0.70 0.70 0.69 0.68 0.68 0.66 0.64 0.62 0.57 0.55 0.54 0.52 0.47 0.45 0.45 0.45 0.44 0.45 0.47 0.52 0.55 0.58 0.61 0.65 0.65 0.65 0.64 0.61 0.57 0.54
0.66 0.67 0.69 0.69 0.68 0.68 0.68 0.67 0.63 0.61 0.57 0.53 0.50 0.46 0.42 0.42 0.41 0.42 0.43 0.46 0.49 0.51 0.52 0.54 0.57 0.58 0.55 0.51 0.47 0.45 0.44 0.44
0.66 0.69 0.71 0.69 0.69 0.67 0.64 0.63 0.61 0.56 0.53 0.52 0.47 0.42 0.38 0.39 0.40 0.41 0.43 0.46 0.47 0.47 0.49 0.49 0.46 0.44 0.42 0.40 0.38 0.37 0.35 0.32
0.67 0.69 0.70 0.68 0.67 0.66 0.62 0.60 0.56 0.52 0.52 0.49 0.45 0.41 0.37 0.35 0.36 0.38 0.42 0.43 0.47 0.43 0.40 0.39 0.38 0.38 0.37 0.35 0.32 0.30 0.27 0.24
0.64 0.67 0.66 0.66 0.67 0.65 0.58 0.56 0.52 0.52 0.50 0.46 0.41 0.38 0.35 0.36 0.38 0.40 0.42 0.44 0.43 0.43 0.43 0.40 0.39 0.38 0.36 0.33 0.30 0.26 0.24 0.23
0.65 0.65 0.62 0.63 0.64 0.58 0.52 0.48 0.49 0.49 0.46 0.43 0.40 0.38 0.37 0.39 0.40 0.42 0.46 0.47 0.47 0.44 0.41 0.39 0.38 0.34 0.29 0.26 0.25 0.22 0.21 0.21
0.62 0.64 0.59 0.61 0.60 0.52 0.50 0.48 0.49 0.47 0.44 0.43 0.42 0.41 0.40 0.41 0.46 0.49 0.49 0.48 0.45 0.43 0.40 0.37 0.34 0.31 0.26 0.23 0.22 0.21 0.21 0.20
0.60 0.59 0.56 0.57 0.55 0.53 0.54 0.51 0.47 0.46 0.44 0.44 0.47 0.50 0.50 0.51 0.50 0.48 0.47 0.48 0.47 0.41 0.36 0.32 0.29 0.23 0.23 0.23 0.22 0.21 0.20 0.18
0.58 0.57 0.56 0.55 0.54 0.56 0.52 0.47 0.45 0.44 0.45 0.47 0.49 0.51 0.49 0.49 0.48 0.45 0.38 0.36 0.35 0.31 0.29 0.25 0.20 0.20 0.21 0.22 0.21 0.20 0.18 0.18
0.54 0.53 0.56 0.55 0.56 0.51 0.46 0.46 0.46 0.48 0.44 0.42 0.42 0.41 0.39 0.39 0.38 0.35 0.32 0.29 0.27 0.23 0.21 0.21 0.21 0.21 0.21 0.20 0.19 0.18 0.18 0.20